CAPE
1 0 0 0 0 0 0 0 0 0 0 0 0 0 0 0 0 5 25 38 46 44 24 6 1 1 9 1 4 4 3 1 0
1 0 0 0 0 0 0 0 0 0 0 0 0 0 0 0 16 29 26 19 12 19 34 31 23 35 34 33 36 33 35 33 30
0 0 0 0 0 0 0 0 0 0 0 0 0 0 0 26 27 15 9 7 8 17 14 33 37 36 35 35 27 18 6 8 21
0 0 0 0 0 0 0 0 0 0 0 0 0 0 6 5 5 19 12 5 6 7 17 30 31 9 8 7 9 5 2 3 2
0 0 0 0 0 0 0 0 0 0 0 0 0 0 1 9 9 18 13 5 8 8 5 28 14 9 1 4 1 2 1 2 3
0 0 0 0 0 0 0 0 0 0 0 0 0 0 1 2 4 3 1 5 7 2 2 6 23 13 0 2 0 1 2 4 6
0 0 0 0 0 0 0 0 0 0 0 0 0 0 0 0 0 6 1 3 5 5 3 5 7 12 5 4 2 4 4 5 5
0 0 0 0 0 0 0 0 0 0 0 0 0 0 0 0 0 0 0 0 5 3 3 3 4 5 3 2 4 2 2 5 4
0 0 0 0 0 0 0 0 0 0 0 0 0 0 0 0 0 0 0 0 1 5 4 4 6 6 7 6 2 0 1 1 4
0 0 0 0 0 0 0 0 0 0 0 0 0 0 0 0 0 0 0 0 0 2 2 4 7 6 8 4 1 0 0 0 1
0 0 0 0 0 0 0 0 0 0 0 0 0 0 0 0 0 0 0 0 0 0 0 0 0 0 1 1 0 0 0 0 0
0 0 0 0 0 0 0 0 0 0 0 0 0 0 0 0 0 0 0 0 0 0 0 0 0 0 0 0 0 0 0 0 0
0 0 0 0 0 0 0 0 0 0 0 0 0 0 0 0 0 0 0 0 0 0 0 0 0 0 0 0 0 0 0 0 0
0 0 0 0 0 0 0 0 0 0 0 0 0 0 0 0 0 0 0 0 0 0 0 0 0 0 0 0 0 0 0 0 0
0 0 0 0 0 0 0 0 0 0 0 0 0 0 0 0 0 0 0 0 0 0 0 0 0 0 0 0 0 0 0 0 0
0 0 0 0 0 0 0 0 0 0 0 0 0 0 0 0 0 0 0 0 0 0 0 0 0 0 0 0 0 0 0 0 0
0 0 0 0 0 0 0 0 0 0 0 0 0 0 0 0 0 0 0 0 0 0 0 0 0 0 0 0 0 0 0 0 0
0 0 0 0 0 0 0 0 0 0 0 0 0 0 0 0 0 0 0 0 0 0 0 0 0 0 0 0 0 0 0 0 0
0 0 0 0 0 0 0 0 0 0 0 0 0 0 0 0 0 0 0 0 0 0 0 0 0 0 0 0 0 0 0 0 0
0 0 0 0 0 0 0 0 0 0 0 0 0 0 0 0 0 0 0 0 0 0 0 0 0 0 0 0 0 0 0 0 0
CIN
0 0 0 0 0 0 0 0 0 0 0 0 0 0 0 0 0 -1 -1 0 0 0 0 0 0 0 0 0 -1 0 0 0 0
0 0 0 0 0 0 0 0 0 0 0 0 0 0 0 0 -1 -2 -1 -1 0 0 0 0 0 0 0 0 0 0 0 0 0
0 0 0 0 0 0 0 0 0 0 0 0 0 0 0 -7 -7 -3 -5 -2 0 0 0 0 0 0 0 0 0 -1 0 0 0
0 0 0 0 0 0 0 0 0 0 0 0 0 0 -15 -10 -7 -3 -3 -1 -1 -1 0 0 0 0 -12 -2 0 0 0 0 0
0 0 0 0 0 0 0 0 0 0 0 0 0 0 -8 -1 -4 -2 -1 0 -1 0 0 0 0 0 -1 0 0 0 0 0 0
0 0 0 0 0 0 0 0 0 0 0 0 0 0 -1 -1 -1 -3 -1 -1 -1 -1 0 -2 -1 0 0 -1 0 0 -1 -1 0
0 0 0 0 0 0 0 0 0 0 0 0 0 0 0 0 -1 -5 -1 0 0 0 -1 -1 -1 -2 0 -1 0 0 0 0 0
0 0 0 0 0 0 0 0 0 0 0 0 0 0 0 0 0 0 0 0 -1 0 0 0 -1 -1 -1 0 -1 0 0 0 -1
0 0 0 0 0 0 0 0 0 0 0 0 0 0 0 0 0 0 0 0 0 -1 -1 -1 0 0 0 0 -1 -1 -1 0 -1
0 0 0 0 0 0 0 0 0 0 0 0 0 0 0 0 0 0 0 0 0 0 0 0 -1 0 -1 -1 0 0 0 0 -1
0 0 0 0 0 0 0 0 0 0 0 0 0 0 0 0 0 0 0 0 0 0 0 -1 -1 0 0 0 0 0 0 0 0
0 0 0 0 0 0 0 0 0 0 0 0 0 0 0 0 0 0 0 0 0 0 0 0 0 0 0 0 -1 0 0 0 0
0 0 0 0 0 0 0 0 0 0 0 0 0 0 0 0 0 0 0 0 0 0 0 0 0 0 0 0 0 -1 0 0 0
0 0 0 0 0 0 0 0 0 0 0 0 0 0 0 0 0 0 0 0 0 0 0 0 0 0 0 0 0 0 0 0 0
0 0 0 0 0 0 0 0 0 0 0 0 0 0 0 0 0 0 0 0 0 0 0 0 0 0 0 0 0 0 0 0 0
0 0 0 0 0 0 0 0 0 0 0 0 0 0 0 0 0 0 0 0 0 0 0 0 0 0 0 0 0 0 0 0 0
0 0 0 0 0 0 0 0 0 0 0 0 0 0 0 0 0 0 0 0 0 0 0 0 0 0 0 0 0 0 0 0 0
0 0 0 0 0 0 0 0 0 0 0 0 0 0 0 0 0 0 0 0 0 0 0 0 0 0 0 0 0 0 0 0 0
0 0 0 0 0 0 0 0 0 0 0 0 0 0 0 0 0 0 0 0 0 0 0 0 0 0 0 0 0 0 0 0 0
0 0 0 0 0 0 0 0 0 0 0 0 0 0 0 0 0 0 0 0 0 0 0 0 0 0 0 0 0 0 0 0 0
Wind_Speed
16 17 18 19 19 19 18 17 17 17 17 17 16 15 14 18 20 22 22 23 23 24 24 24 24 24 24 24 24 24 24 24 24
15 16 18 19 19 17 17 16 16 17 17 17 16 15 15 19 20 21 22 23 24 25 25 24 24 24 24 24 24 24 25 25 25
14 15 17 18 17 16 15 15 16 17 17 17 17 15 12 20 20 21 21 22 23 24 25 24 24 24 24 24 24 25 25 25 26
13 14 16 17 16 15 14 14 15 16 16 17 17 15 17 21 20 21 21 22 23 22 24 23 23 23 23 24 24 24 25 25 25
13 13 15 17 16 15 14 14 15 15 16 16 17 18 18 20 21 21 22 23 23 22 22 23 23 23 23 23 24 25 25 25 25
12 12 14 16 16 15 14 14 14 15 16 16 17 18 19 19 21 21 22 23 23 22 22 22 23 23 24 24 24 25 25 25 26
12 12 13 15 15 15 14 14 14 14 15 16 17 18 18 19 20 21 22 22 23 22 22 22 22 23 24 24 24 25 25 25 26
12 12 13 13 13 14 14 14 14 14 15 16 17 17 18 19 20 21 22 22 22 22 23 23 22 23 24 24 25 25 26 26 26
12 12 12 12 13 13 14 14 14 14 15 15 16 17 17 18 19 21 22 22 22 22 23 23 23 24 24 24 25 26 26 27 27
12 12 12 12 13 13 13 14 14 14 15 15 16 17 17 18 18 20 22 22 22 22 23 23 23 24 24 25 26 26 27 27 27
12 12 12 12 13 13 13 13 14 14 14 15 15 16 17 17 18 18 20 22 22 22 23 23 24 25 25 25 26 27 27 28 28
12 12 13 13 13 13 13 14 14 14 14 14 15 16 16 16 17 18 17 19 21 22 23 24 25 25 26 26 26 27 28 29 29
10 11 12 12 12 13 13 13 13 13 13 14 14 15 15 16 16 17 18 19 19 21 22 24 25 26 26 27 28 28 29 30 30
9 10 10 11 12 13 13 13 13 13 14 14 14 15 15 15 16 16 17 18 19 18 20 22 25 26 26 28 29 30 31 32 32
8 9 9 10 11 12 14 14 14 14 13 14 14 15 15 15 15 16 16 18 18 20 22 22 24 26 27 29 31 32 33 34 34
8 8 9 10 10 11 13 14 14 15 14 14 15 16 15 16 16 16 16 18 19 21 21 23 25 26 27 30 32 33 34 35 35
7 8 9 10 11 11 12 13 14 16 16 18 16 18 17 16 16 16 16 17 19 21 23 24 26 27 28 30 31 34 35 36 37
9 9 10 11 12 12 13 14 15 16 18 18 19 21 23 18 17 18 17 18 20 22 24 25 27 28 29 30 31 35 37 38 39
11 12 11 11 13 14 14 16 16 17 18 18 19 20 21 24 25 18 18 19 22 25 27 29 29 28 31 31 32 37 40 41 41
12 13 12 13 13 14 16 17 18 19 18 19 19 20 21 21 23 28 24 20 24 26 28 31 31 30 32 33 34 38 41 41 41
Wind_Direction
43 44 43 45 45 41 35 31 30 31 28 24 23 15 348 19 24 37 26 26 32 27 26 26 23 25 22 21 16 14 11 6 359
40 40 42 46 43 35 29 25 29 31 25 20 17 6 352 28 28 25 27 23 19 17 15 23 21 19 21 18 18 15 12 6 0
31 33 39 43 35 26 20 19 29 28 23 18 20 2 321 21 27 25 18 14 13 13 14 19 23 21 21 20 17 13 9 5 4
27 25 37 38 32 22 16 18 25 25 20 17 22 356 358 36 14 17 15 9 9 11 11 14 14 13 12 11 9 6 2 0 359
30 27 30 39 34 25 17 16 21 18 15 16 22 13 1 32 32 14 14 13 11 11 11 10 12 11 6 0 357 355 354 353 351
15 14 26 37 33 26 19 16 20 24 17 14 12 349 22 18 18 12 12 11 10 12 12 9 8 8 3 357 355 355 353 351 350
22 21 27 33 29 24 20 21 28 38 24 22 19 17 19 16 16 9 8 12 12 12 11 10 9 7 4 1 358 356 354 352 350
35 31 30 28 37 23 27 24 8 10 13 17 17 17 19 22 19 10 9 10 11 11 10 9 9 8 7 4 360 356 353 351 350
40 23 22 19 14 13 6 5 12 17 21 22 22 22 23 24 24 14 10 12 13 11 9 8 7 5 5 4 1 358 355 352 349
42 37 22 11 5 8 10 11 12 15 17 20 22 22 22 22 23 18 11 13 13 11 8 6 4 2 0 360 358 357 356 354 351
46 38 27 19 11 7 8 9 9 12 16 17 14 14 15 17 19 23 18 15 13 11 9 5 2 359 357 356 355 353 352 350 350
54 46 46 27 13 12 10 7 6 8 8 11 10 11 12 16 16 15 22 20 13 10 7 3 359 356 354 354 353 350 348 347 346
48 43 36 37 21 10 9 6 4 6 9 9 6 8 8 9 9 10 10 7 11 8 6 2 359 356 353 350 348 346 343 341 340
28 29 27 25 26 11 4 0 1 1 0 1 1 -0 1 2 3 6 6 4 2 6 4 1 357 354 352 349 345 341 338 336 335
4 15 18 16 15 7 359 358 354 356 358 360 358 355 356 356 357 358 360 360 360 358 356 354 352 350 347 343 340 338 335 333 331
354 4 11 7 3 3 356 355 357 352 352 351 348 349 350 350 348 350 352 352 352 352 351 350 346 343 342 339 337 335 334 332 331
347 357 356 357 353 353 348 348 348 346 343 337 338 336 338 340 343 343 344 345 346 345 345 344 342 340 338 337 336 334 332 330 328
331 338 342 342 341 342 342 338 339 339 338 336 333 330 328 335 339 337 337 338 339 341 339 339 338 337 335 334 333 332 330 328 326
321 325 331 340 336 330 334 333 335 335 331 335 337 335 333 326 326 335 334 334 333 334 334 334 334 334 333 332 332 330 328 326 324
312 317 325 329 335 329 326 329 329 330 331 330 333 334 335 335 329 323 330 333 331 331 331 330 330 331 330 330 330 329 327 326 325